Other Public Products
Issued by NWS Charleston, SC

Current Version | Previous Version | Graphics & Text | Print | Product List | Glossary On
Versions: 1 2 3 4 5 6 7 8 9 10 11 12 13 14 15 16 17 18 19 20 21 22 23 24 25 26 27 28 29 30 31 32 33 34 35 36 37 38 39 40 41 42 43 44 45 46 47 48 49 50
287
FPUS82 KCHS 271412
OPUCHS

TEST...KCHS/KSAV Gateway Observations...TEST
National Weather Service Charleston SC
1000 AM EDT THU APR 27 2017

NOTE: "fair" indicates few or no clouds below 12,000 feet with no
significant weather and/or obstructions to visibility.

SCZ050-WAZ558-NCZ071-TXZ119-213-PAZ071-DCZ001-FLZ074-172-MI076-
NYZ176-178-MAZ016-IL014-TNZ027-NJZ106-GAZ044-MD014-271500-

...Gateway Observations for Charleston International...

CITY           SKY/WX    TMP DP  RH WIND       PRES   REMARKS
Chas Airport   PTSUNNY   76  61  59 SW8       29.95S
Seattle        MOCLDY    44  38  79 S10       30.06R
Charlotte      CLOUDY    70  58  65 SW9       29.90S
Dallas DFW     CLOUDY    57  50  77 S12       29.81R
Dallas Love    CLOUDY    57  48  72 S10       29.83R
Philladelphia  MOSUNNY   67  59  75 SE7       29.89F
Wash National  MOSUNNY   68  63  84 S6        29.86S
Baltimore      CLOUDY    63  61  93 SE5       29.85F FOG
Miami          MOSUNNY   84  72  67 SE10      29.96R
Detroit        CLOUDY    72  53  51 S14       29.52S
Newark         CLOUDY    60  58  92 E3        29.91F FOG
Laguardia      CLOUDY    62  58  86 S7        29.92S FOG
J F K          CLOUDY    59  59 100 S7        29.94S FOG
Boston Logan   CLOUDY    55  53  93 NW6       29.93S FOG
Ft. Lauderdale MOSUNNY   83  70  64 SE16      29.95R
Chicago O`Hare CLOUDY    47  43  86 W21G33    29.47R
Chicago Midway CLOUDY    46  43  89 W26G37    29.48R
Houston Bush   SUNNY     61  48  62 E12       29.85R
Houston Hobby  SUNNY     62  48  60 E13       29.84R
Nashville      PTSUNNY   66  59  78 SW6       29.72R
Atlanta        CLOUDY    69  66  90 S13G22    29.80S

$$

GAZ044-118-TXZ119-213-NCZ071-DCZ001-MDZ014-506-PAZ021-071-NJZ106-
NYZ176-178-MAZ106-OHZ011-021-055-MIZ076-KYZ091-ILZ014-INZ047-
MNZ060-ONZ431-271500-

...Gateway Observations for Savannah International...

CITY           SKY/WX    TMP DP  RH WIND       PRES   REMARKS
Savannah Arpt  PTSUNNY   77  62  59 S9        29.93F
Atlanta        CLOUDY    69  66  90 S13G22    29.80S
Charlotte      CLOUDY    70  58  65 SW9       29.90S
Dallas DFW     CLOUDY    57  50  77 S12       29.81R
Houston Bush   SUNNY     61  48  62 E12       29.85R
Wash National  MOSUNNY   68  63  84 S6        29.86S
Wash Dulles    CLOUDY    63  60  90 S3        29.86R FOG
Baltimore      CLOUDY    63  61  93 SE5       29.85F FOG
Philadelphia   MOSUNNY   67  59  75 SE7       29.89F
Newark         CLOUDY    60  58  92 E3        29.91F FOG
Laguardia      CLOUDY    62  58  86 S7        29.92S FOG
J F K          CLOUDY    59  59 100 S7        29.94S FOG
Boston         CLOUDY    55  53  93 NW6       29.93S FOG
Pittsburg      CLOUDY    70  59  68 S6        29.71S
Akron          CLOUDY    72  56  57 S13       29.64F
Cleveland      CLOUDY    74  55  51 S16       29.59F
Cincinnati     CLOUDY    61  58  90 SW7       29.62S
Columbus       PTSUNNY   70  56  61 S18G24    29.60F
Detroit        CLOUDY    72  53  51 S14       29.52S
Chicago O`Hare CLOUDY    47  43  86 W21G33    29.47R
Minneapolis    CLOUDY    33  28  81 NW14      29.54S WCI  23
Indianapolis   CLOUDY    54  51  90 W20       29.59R
Toronto Canada PTSUNNY   66  57  72 SE8       29.65F

$$




USA.gov is the U.S. government's official web portal to all federal, state and local government web resources and services.